Terminal Aerodrome Forecast
Issued by NWS Cleveland, OH

Home | Current Version | Previous Version | Graphics & Text | Print | Product List | Glossary On
Versions: 1 2 3 4 5 6 7 8 9 10 11 12 13 14 15 16 17 18 19 20 21 22 23 24 25 26 27 28 29 30 31 32 33 34 35 36 37
000
FTUS41 KCLE 221400 AAA
TAFCLE
TAF AMD
KCLE 221406Z 2214/2318 29012G22KT 6SM BR VCSH BKN015 OVC025
     FM221600 29014G24KT P6SM BKN020 OVC025
     FM221800 32020G28KT P6SM BKN025
     FM230100 32012KT P6SM VCSH BKN030=

USA.gov is the U.S. government's official web portal to all federal, state and local government web resources and services.